RH
13 13 15 16 20 21 22 23 26 27 32 40 41 37 38 41 48 60 64 61 63 60 65 72 96 91 80 71 67 61 62 68 64 44 34 32 28 31 29 32 33 32 27 23 22 22 21 23 26
13 16 18 20 23 27 26 26 31 31 38 41 39 40 37 58 71 70 75 68 57 54 49 55 69 97 91 82 74 71 68 73 67 42 35 37 35 33 33 33 35 33 28 25 24 24 24 26 30
14 18 20 22 25 28 27 30 32 36 35 38 39 45 52 63 66 77 78 66 64 50 46 44 45 63 94 87 82 79 76 80 69 45 41 45 41 37 37 32 31 31 32 28 26 27 28 30 34
17 20 22 23 24 24 28 29 32 34 32 31 39 49 54 53 75 70 87 73 59 46 40 49 69 88 94 87 86 84 83 79 61 40 38 44 43 39 39 35 30 32 34 30 30 31 33 35 37
21 22 24 26 25 30 32 32 34 33 36 40 36 50 56 61 58 58 63 65 64 51 57 65 81 96 98 93 88 87 86 82 61 43 42 46 46 42 39 37 35 37 38 35 34 35 35 37 40
19 20 26 28 27 31 33 34 36 37 36 44 41 44 50 57 60 57 66 66 73 65 69 82 90 91 95 95 92 91 85 78 57 48 47 48 47 42 41 42 40 42 42 40 39 38 36 38 42
20 24 25 25 26 28 38 36 38 37 40 43 38 44 69 67 58 68 70 68 69 64 80 80 75 76 71 96 99 97 88 74 59 51 50 51 47 46 45 46 44 47 50 45 45 44 45 41 41
20 24 25 25 29 38 39 37 37 35 45 46 50 65 86 69 61 72 71 71 71 71 79 77 75 77 83 86 93 97 95 74 65 58 54 54 53 53 49 48 49 53 53 56 51 53 47 44 39
20 25 27 29 36 39 38 36 39 37 43 51 55 58 64 61 65 67 77 77 76 75 81 84 79 80 83 86 93 93 93 76 74 66 60 59 59 58 55 54 56 60 63 63 61 57 51 46 39
24 22 25 26 34 35 35 36 41 44 50 57 61 66 71 67 63 64 71 77 75 75 77 80 81 79 84 88 93 92 90 82 76 77 76 65 61 59 59 62 63 66 67 69 64 59 52 42 37
29 27 25 25 28 34 34 34 37 47 60 71 68 69 66 59 60 59 59 70 77 76 76 78 82 86 86 84 81 83 86 86 83 82 68 63 62 63 64 66 70 71 69 70 65 58 48 39 38
31 30 30 23 22 31 29 32 46 46 60 68 71 69 60 49 57 62 62 68 74 74 78 80 85 90 92 89 90 91 91 80 79 74 67 64 64 65 65 68 71 73 70 68 60 58 52 41 34
26 29 29 29 25 29 33 33 36 42 40 41 69 63 53 51 54 59 68 68 70 70 76 82 86 88 89 89 96 91 80 74 79 78 69 65 67 67 67 67 71 72 71 68 70 65 56 44 34
23 28 28 29 24 33 38 39 34 40 38 47 55 55 52 50 53 64 71 74 74 76 76 77 78 83 92 94 90 84 82 80 77 71 70 72 70 69 68 65 69 72 71 80 73 65 48 43 33
25 28 21 24 32 37 42 47 49 47 46 50 54 49 52 51 54 70 73 83 81 80 79 78 81 84 90 88 88 87 83 78 74 75 78 74 72 69 64 62 65 71 78 82 76 61 44 42 36
25 28 30 31 34 40 42 45 47 55 60 67 63 50 48 53 53 59 57 65 77 87 87 82 86 86 85 87 86 83 81 77 80 79 74 71 67 64 62 61 66 75 81 83 78 61 48 43 38
24 36 41 33 39 41 44 50 50 58 61 66 68 67 49 51 58 51 51 56 62 70 77 78 84 83 86 88 84 82 82 80 79 69 66 65 61 58 60 59 70 76 80 81 76 65 57 48 42
38 46 50 45 43 45 50 50 51 53 57 63 75 76 53 49 45 48 47 49 52 53 64 76 76 74 75 76 76 74 75 64 58 56 54 55 55 58 62 63 68 72 82 79 73 69 59 54 48
39 45 48 42 44 47 49 42 47 54 61 59 61 65 58 45 44 40 34 42 43 44 49 51 46 49 51 50 51 51 51 52 53 52 50 49 52 54 58 63 68 73 77 78 72 69 64 57 55
40 44 38 48 43 44 41 33 44 53 57 59 52 60 63 50 43 43 35 31 32 33 35 40 43 41 42 42 49 50 49 49 49 49 50 46 48 54 55 61 67 75 79 79 74 77 75 75 74
43 40 31 42 42 46 42 38 53 48 56 56 57 58 51 48 41 41 37 30 30 29 30 32 37 41 41 41 46 47 46 44 44 44 47 49 50 54 60 60 73 72 74 78 86 89 90 88 90
41 34 32 40 46 46 44 46 50 49 50 50 49 46 46 44 39 38 35 32 31 31 31 31 32 33 36 36 35 36 40 42 43 44 49 55 58 57 59 58 59 61 65 72 80 86 93 96 96
34 46 47 47 44 39 39 50 54 52 46 46 52 49 45 37 33 36 36 39 35 35 34 33 36 39 35 34 37 39 39 38 40 44 48 54 60 62 68 70 73 73 77 83 84 86 90 95 98
32 45 45 44 46 49 38 56 63 52 44 45 45 47 48 42 35 39 45 45 39 40 41 41 42 42 40 40 45 48 48 51 54 52 55 59 62 66 68 78 71 66 68 79 85 90 95 96 97
39 43 51 57 59 52 55 62 53 48 45 45 38 42 45 44 40 41 44 46 44 42 44 46 46 46 50 53 52 55 59 61 63 64 55 59 59 60 67 68 68 71 76 81 83 88 90 90 95
40 41 53 59 69 62 53 56 46 37 38 39 34 38 40 42 44 39 40 41 47 48 48 46 48 47 49 50 52 54 58 63 63 66 65 60 55 59 66 73 76 79 78 79 80 79 77 78 74
40 47 44 67 67 78 71 52 44 40 37 37 39 40 39 40 43 47 46 43 45 54 51 46 45 44 46 49 50 55 60 60 62 61 67 74 71 71 83 89 86 87 81 76 75 76 79 69 72
39 46 62 71 88 87 63 63 52 50 45 37 34 32 33 37 44 46 46 44 47 47 47 48 45 43 44 47 50 51 54 63 73 66 71 76 80 92 79 88 85 89 80 75 73 70 75 64 70
37 42 57 67 74 69 68 63 53 48 49 43 35 33 31 35 40 46 50 48 46 46 46 46 55 53 52 51 47 52 60 60 65 73 84 93 93 90 82 79 80 75 71 72 76 77 67 67 63
43 34 47 66 62 66 73 63 47 49 44 42 42 37 33 30 29 29 37 47 52 50 48 47 55 54 50 54 61 75 75 76 89 97 95 86 73 72 69 74 68 71 74 77 79 66 63 57 66